When you browse on this site, cookies collect data to enhance your experience and personalize the content and advertising you see.
Visit our Privacy Policy to learn more. By continuing to use the site, you agree to this use of cookies and data.
  • In Hungary
  • List of Countries
  • For 7 days
  • Water Temperature
  • Weather Map
  • News
  • Weather Widgets
  • user-avatar
    Login

    Hourly Weather Tame

    Today, 8 December, Sunday

    Time Temperature Precipitation Wind Pressure Humidity
    00:00 +24°C° 0 mm 1 mps 733 mmHg 76%
    01:00 +24°C° 0 mm 1 mps 733 mmHg 75%
    02:00 +24°C° 0 mm 1 mps 732 mmHg 75%
    03:00 +24°C° 0 mm 1 mps 732 mmHg 75%
    04:00 +24°C° 0 mm 1 mps 732 mmHg 75%
    05:00 +25°C° 0 mm 1 mps 732 mmHg 74%
    06:00 +25°C° 0 mm 1 mps 733 mmHg 72%
    07:00 +26°C° 0 mm 1 mps 733 mmHg 70%
    08:00 +28°C° 0.1 mm 2 mps 733 mmHg 66%
    09:00 +30°C° 0.1 mm 3 mps 734 mmHg 63%
    10:00 +31°C° 0.1 mm 3 mps 734 mmHg 59%
    11:00 +33°C° 0.3 mm 3 mps 733 mmHg 60%
    12:00 +33°C° 0.3 mm 3 mps 732 mmHg 60%
    13:00 +33°C° 0.3 mm 3 mps 731 mmHg 61%
    14:00 +33°C° 0.2 mm 3 mps 731 mmHg 61%
    15:00 +31°C° 0.2 mm 3 mps 730 mmHg 62%
    16:00 +31°C° 0.2 mm 3 mps 730 mmHg 63%
    17:00 +29°C° 0.2 mm 2 mps 730 mmHg 70%
    18:00 +28°C° 0.2 mm 2 mps 731 mmHg 77%
    19:00 +26°C° 0.2 mm 1 mps 731 mmHg 84%
    20:00 +25°C° 0.1 mm 1 mps 732 mmHg 84%
    21:00 +25°C° 0.1 mm 1 mps 732 mmHg 85%
    22:00 +25°C° 0.1 mm 1 mps 733 mmHg 85%
    23:00 +24°C° 0.2 mm 1 mps 732 mmHg 86%

    Tomorrow, 9 December, Monday

    Time Temperature Precipitation Wind Pressure Humidity
    00:00 +24°C° 0.2 mm 1 mps 732 mmHg 87%
    01:00 +24°C° 0.2 mm 1 mps 732 mmHg 87%
    02:00 +24°C° 0.1 mm 2 mps 731 mmHg 87%
    03:00 +24°C° 0.1 mm 2 mps 731 mmHg 86%
    04:00 +24°C° 0.1 mm 2 mps 731 mmHg 85%
    05:00 +24°C° 0 mm 2 mps 732 mmHg 83%
    06:00 +25°C° 0 mm 2 mps 732 mmHg 82%
    07:00 +26°C° 0 mm 1 mps 733 mmHg 81%
    08:00 +27°C° 0.3 mm 2 mps 733 mmHg 78%
    09:00 +28°C° 0.3 mm 3 mps 734 mmHg 75%
    10:00 +29°C° 0.3 mm 3 mps 734 mmHg 72%
    11:00 +30°C° 0.2 mm 3 mps 733 mmHg 68%
    12:00 +31°C° 0.2 mm 3 mps 732 mmHg 65%
    13:00 +32°C° 0.2 mm 4 mps 731 mmHg 61%
    14:00 +31°C° 0 mm 3 mps 731 mmHg 61%
    15:00 +31°C° 0 mm 3 mps 731 mmHg 61%
    16:00 +31°C° 0 mm 3 mps 730 mmHg 60%
    17:00 +29°C° 0 mm 3 mps 731 mmHg 67%
    18:00 +27°C° 0 mm 2 mps 731 mmHg 73%
    19:00 +25°C° 0 mm 1 mps 731 mmHg 80%
    20:00 +25°C° 0 mm 1 mps 732 mmHg 79%
    21:00 +25°C° 0 mm 2 mps 732 mmHg 78%
    22:00 +24°C° 0 mm 2 mps 732 mmHg 77%
    23:00 +24°C° 0 mm 2 mps 732 mmHg 77%

    Day after tomorrow, 10 December, Tuesday

    Time Temperature Precipitation Wind Pressure Humidity
    00:00 +23°C° 0 mm 2 mps 732 mmHg 76%
    01:00 +23°C° 0 mm 2 mps 732 mmHg 75%
    02:00 +23°C° 0 mm 2 mps 731 mmHg 74%
    03:00 +23°C° 0 mm 2 mps 731 mmHg 73%
    04:00 +23°C° 0 mm 2 mps 731 mmHg 71%
    05:00 +24°C° 0 mm 2 mps 732 mmHg 69%
    06:00 +25°C° 0 mm 2 mps 733 mmHg 66%
    07:00 +25°C° 0 mm 2 mps 733 mmHg 63%
    08:00 +27°C° 0 mm 3 mps 734 mmHg 58%
    09:00 +30°C° 0 mm 3 mps 734 mmHg 52%
    10:00 +33°C° 0 mm 4 mps 734 mmHg 46%
    11:00 +33°C° 0 mm 4 mps 733 mmHg 46%
    12:00 +34°C° 0 mm 4 mps 732 mmHg 46%
    13:00 +34°C° 0 mm 4 mps 731 mmHg 46%
    14:00 +34°C° 0 mm 4 mps 731 mmHg 49%
    15:00 +33°C° 0 mm 4 mps 730 mmHg 52%
    16:00 +33°C° 0 mm 3 mps 729 mmHg 55%
    17:00 +30°C° 0 mm 3 mps 730 mmHg 63%
    18:00 +28°C° 0 mm 2 mps 731 mmHg 71%
    19:00 +26°C° 0 mm 1 mps 731 mmHg 79%
    20:00 +25°C° 0 mm 1 mps 732 mmHg 79%
    21:00 +25°C° 0 mm 1 mps 732 mmHg 79%
    22:00 +24°C° 0 mm 1 mps 733 mmHg 79%
    23:00 +24°C° 0 mm 1 mps 732 mmHg 77%

    11 December, Wednesday

    Time Temperature Precipitation Wind Pressure Humidity
    00:00 +24°C° 0 mm 1 mps 732 mmHg 75%
    01:00 +24°C° 0 mm 1 mps 732 mmHg 72%
    02:00 +24°C° 0 mm 1 mps 732 mmHg 71%
    03:00 +24°C° 0 mm 2 mps 731 mmHg 69%
    04:00 +24°C° 0 mm 2 mps 731 mmHg 67%
    05:00 +24°C° 0 mm 2 mps 732 mmHg 68%
    06:00 +25°C° 0 mm 2 mps 732 mmHg 68%
    07:00 +25°C° 0 mm 2 mps 733 mmHg 69%
    08:00 +27°C° 0 mm 3 mps 733 mmHg 63%
    09:00 +29°C° 0 mm 3 mps 733 mmHg 57%
    10:00 +32°C° 0 mm 4 mps 733 mmHg 51%
    11:00 +32°C° 0 mm 4 mps 733 mmHg 49%
    12:00 +33°C° 0 mm 4 mps 732 mmHg 48%
    13:00 +33°C° 0 mm 4 mps 731 mmHg 47%
    14:00 +33°C° 0 mm 4 mps 731 mmHg 50%
    15:00 +31°C° 0 mm 3 mps 730 mmHg 52%
    16:00 +31°C° 0 mm 3 mps 729 mmHg 55%
    17:00 +29°C° 0 mm 3 mps 730 mmHg 62%
    18:00 +27°C° 0 mm 2 mps 730 mmHg 69%
    19:00 +25°C° 0 mm 1 mps 731 mmHg 77%
    20:00 +25°C° 0 mm 1 mps 731 mmHg 77%
    21:00 +25°C° 0 mm 1 mps 732 mmHg 77%
    22:00 +24°C° 0 mm 1 mps 732 mmHg 78%
    23:00 +24°C° 0 mm 1 mps 732 mmHg 78%

    12 December, Thursday

    Time Temperature Precipitation Wind Pressure Humidity
    00:00 +24°C° 0 mm 1 mps 731 mmHg 78%
    01:00 +23°C° 0 mm 1 mps 731 mmHg 78%
    02:00 +23°C° 0 mm 1 mps 731 mmHg 78%
    03:00 +23°C° 0 mm 1 mps 730 mmHg 78%
    04:00 +23°C° 0 mm 1 mps 730 mmHg 78%
    05:00 +24°C° 0 mm 2 mps 731 mmHg 76%
    06:00 +24°C° 0 mm 2 mps 731 mmHg 74%
    07:00 +25°C° 0 mm 2 mps 732 mmHg 72%
    08:00 +27°C° 0 mm 2 mps 732 mmHg 67%
    09:00 +29°C° 0 mm 3 mps 732 mmHg 62%
    10:00 +31°C° 0 mm 3 mps 732 mmHg 57%
    11:00 +33°C° 0 mm 3 mps 732 mmHg 55%
    12:00 +33°C° 0 mm 3 mps 731 mmHg 53%
    13:00 +34°C° 0 mm 3 mps 730 mmHg 52%
    14:00 +33°C° 0.1 mm 3 mps 729 mmHg 54%
    15:00 +33°C° 0.1 mm 3 mps 729 mmHg 56%
    16:00 +31°C° 0.1 mm 3 mps 728 mmHg 58%
    17:00 +30°C° 0 mm 2 mps 729 mmHg 67%
    18:00 +28°C° 0 mm 2 mps 729 mmHg 75%
    19:00 +26°C° 0 mm 1 mps 730 mmHg 83%
    20:00 +25°C° 0.1 mm 1 mps 730 mmHg 85%
    21:00 +25°C° 0.1 mm 1 mps 731 mmHg 86%
    22:00 +25°C° 0.1 mm 1 mps 732 mmHg 87%
    23:00 +25°C° 0.1 mm 1 mps 731 mmHg 88%

    13 December, Friday

    Time Temperature Precipitation Wind Pressure Humidity
    00:00 +24°C° 0.1 mm 1 mps 731 mmHg 88%
    01:00 +24°C° 0.1 mm 1 mps 731 mmHg 88%
    02:00 +24°C° 0.1 mm 1 mps 730 mmHg 87%
    03:00 +24°C° 0.1 mm 1 mps 730 mmHg 85%
    04:00 +24°C° 0.1 mm 1 mps 730 mmHg 84%
    05:00 +24°C° 0 mm 1 mps 731 mmHg 81%
    06:00 +25°C° 0 mm 2 mps 731 mmHg 78%
    07:00 +26°C° 0 mm 2 mps 732 mmHg 76%
    08:00 +27°C° 0 mm 2 mps 732 mmHg 70%
    09:00 +29°C° 0 mm 3 mps 732 mmHg 64%
    10:00 +31°C° 0 mm 3 mps 732 mmHg 59%
    11:00 +31°C° 0 mm 3 mps 732 mmHg 57%
    12:00 +33°C° 0 mm 3 mps 731 mmHg 56%
    13:00 +32°C° 0 mm 2 mps 730 mmHg 55%
    14:00 +32°C° 0.1 mm 2 mps 730 mmHg 57%
    15:00 +31°C° 0.1 mm 2 mps 729 mmHg 59%
    16:00 +31°C° 0.1 mm 2 mps 729 mmHg 61%
    17:00 +29°C° 0 mm 2 mps 729 mmHg 67%
    18:00 +28°C° 0 mm 1 mps 730 mmHg 74%
    19:00 +26°C° 0 mm 1 mps 730 mmHg 81%
    20:00 +26°C° 0 mm 1 mps 731 mmHg 82%
    21:00 +25°C° 0 mm 1 mps 731 mmHg 83%
    22:00 +25°C° 0 mm 1 mps 732 mmHg 84%
    23:00 +25°C° 0.1 mm 1 mps 731 mmHg 86%
    Show more